This demonstration page uses our WeatherBlox Daily Observations layout. Learn more.

Hourly Observations for August 7, 2020

Temp ( °F °C ) Dew Point ( °F °C ) Humidity (%) Winds ( mph kmh ) Pressure ( in mb ) Visibility ( mi km ) Precip ( " mm )
12:51 am 00:51 Clear 83 28.3 38 3.3 20 20 N 5 7 29.73 1007 10 16.0934 0 0
1:51 am 01:51 Clear 82 27.8 40 4.4 22 22 S 3 6 29.73 1007 10 16.0934 0 0
2:51 am 02:51 Clear 74 23.3 39 3.9 28 28 Calm 29.75 1007 10 16.0934 0 0
3:51 am 03:51 Clear 74 23.3 38 3.3 27 27 S 3 6 29.76 1008 10 16.0934 0 0
4:51 am 04:51 Clear 74 23.3 39 3.9 28 28 Calm 29.77 1008 10 16.0934 0 0
5:51 am 05:51 Sunny 74 23.3 39 3.9 28 28 SSE 3 6 29.79 1009 10 16.0934 0 0
6:51 am 06:51 Sunny 76 24.4 39 3.9 26 26 Calm 29.82 1010 10 16.0934 0 0
7:51 am 07:51 Sunny 86 30 40 4.4 20 20 Calm 29.83 1010 10 16.0934 0 0
8:51 am 08:51 Sunny 87 30.6 40 4.4 19 19 Calm 29.83 1010 10 16.0934 0 0
9:51 am 09:51 Sunny 93 33.9 43 6.1 18 18 VRB 5 7 29.84 1011 10 16.0934 0 0
10:51 am 10:51 Sunny 96 35.6 41 5 15 15 WNW 9 15 29.83 1010 10 16.0934 0 0
11:51 am 11:51 Partly Cloudy 98 36.7 42 5.6 15 15 W 10 17 29.82 1010 10 16.0934 0 0
12:51 pm 12:51 Mostly Cloudy 94 34.4 44 6.7 18 18 WSW 14 22 29.83 1010 10 16.0934 0 0
1:51 pm 13:51 Mostly Sunny 95 35 50 10 22 22 NNE 9 15 29.83 1010 10 16.0934 0.001 0.001
2:51 pm 14:51 Mostly Sunny 98 36.7 48 8.9 18 18 VRB 3 6 29.81 1010 10 16.0934 0 0
3:51 pm 15:51 Sunny 98 36.7 48 8.9 18 18 Calm 29.79 1009 10 16.0934 0 0
4:51 pm 16:51 Partly Cloudy 97 36.1 46 7.8 17 17 Calm 29.78 1009 10 16.0934 0 0
5:51 pm 17:51 Sunny 96 35.6 45 7.2 17 17 SSE 8 13 29.78 1008 10 16.0934 0 0
6:51 pm 18:51 Sunny 96 35.6 45 7.2 17 17 ESE 8 13 29.78 1009 10 16.0934 0 0
7:51 pm 19:51 Clear 91 32.8 47 8.3 22 22 ESE 7 11 29.79 1009 10 16.0934 0 0
8:51 pm 20:51 Clear 86 30 47 8.3 26 26 E 8 13 29.82 1010 10 16.0934 0 0
9:51 pm 21:51 Clear 85 29.4 48 8.9 28 28 SSE 8 13 29.83 1010 10 16.0934 0 0
10:51 pm 22:51 Clear 83 28.3 50 10 32 32 ESE 7 11 29.83 1010 10 16.0934 0 0
11:51 pm 23:51 Clear 81 27.2 49 9.4 33 33 E 8 13 29.83 1010 10 16.0934 0 0

Powered by AerisWeather